RH
99 98 100 85 21 6 6 7 10 15 21 24 25 26 28 33 34 42 70 87 100 98 100 99 93 98 84 60 67 46 38 28 24 11 6 11 17 14 10 8 6 5 4
98 88 24 11 6 7 9 15 24 30 32 30 29 31 34 36 37 37 37 32 66 99 97 100 99 96 95 67 69 62 49 30 24 16 6 9 18 18 11 8 6 4 4
66 27 10 7 8 10 14 24 35 33 34 44 50 58 57 53 54 57 37 37 41 28 92 100 100 100 93 100 72 68 57 30 22 15 7 8 18 18 11 8 8 4 4
54 13 7 8 10 11 14 20 31 41 54 75 74 66 58 56 66 66 69 69 60 48 35 84 100 100 99 100 80 71 64 36 24 21 8 7 17 19 15 7 6 5 5
95 18 8 9 12 18 26 27 26 25 46 74 66 65 72 82 86 84 76 63 61 71 46 35 97 100 100 99 88 56 73 48 31 23 9 9 17 19 17 9 7 6 5
92 10 9 11 17 23 35 33 23 35 58 66 87 93 91 100 94 82 59 45 57 94 72 42 55 100 99 94 83 51 86 53 42 28 9 10 16 18 17 10 7 6 4
71 9 11 14 18 26 31 21 46 57 72 91 100 100 100 82 95 95 100 100 100 100 96 49 36 100 100 100 50 62 94 57 40 32 12 8 15 17 17 9 7 5 4
12 9 12 16 20 23 15 30 44 44 89 99 93 87 94 96 82 100 100 100 100 100 85 60 34 99 100 99 43 79 100 60 33 32 8 7 12 16 16 11 6 5 4
8 10 14 17 19 16 14 26 37 78 80 49 86 100 86 51 99 100 100 97 96 97 98 74 35 99 100 100 56 90 92 42 35 36 10 7 13 16 15 8 6 5 4
8 10 15 15 15 14 16 35 64 96 54 75 76 68 75 82 93 98 98 100 95 89 86 62 39 100 100 100 100 100 76 45 37 34 12 7 16 15 13 8 6 5 5
6 8 13 15 15 15 30 38 97 53 42 56 78 94 100 100 100 100 96 88 77 68 56 43 64 100 99 100 99 100 81 50 39 28 10 10 16 15 10 7 5 5 6
4 6 10 14 14 14 20 55 54 40 58 82 100 100 100 100 100 100 100 99 97 98 50 28 94 96 98 100 100 99 94 54 40 27 9 15 16 15 7 5 5 6 6
4 5 8 12 14 14 18 46 27 69 85 95 100 100 100 100 100 100 100 100 99 76 80 97 98 96 98 91 99 91 63 47 34 13 12 17 17 10 6 5 7 13 29
6 4 6 9 12 14 17 42 43 55 55 85 98 99 100 100 100 100 100 100 100 100 100 100 100 98 99 100 100 84 64 41 14 12 17 17 14 6 5 7 17 37 64
30 4 5 7 9 11 13 35 34 32 34 39 66 75 99 100 100 100 100 100 100 100 100 95 97 100 98 91 75 63 37 15 14 17 17 16 9 8 9 24 81 97 100
75 10 6 6 7 9 11 13 39 30 23 30 48 52 60 90 96 99 100 100 100 100 100 97 95 88 81 68 40 33 14 15 17 16 15 12 10 9 11 48 84 100 98
100 41 23 10 7 7 9 10 12 25 41 38 44 52 60 47 68 94 100 100 99 100 100 100 100 92 55 35 22 14 16 16 15 17 15 13 10 17 62 85 98 99 83
100 85 40 47 90 34 6 8 10 11 12 17 32 46 52 47 40 39 68 85 80 74 67 58 43 30 17 14 14 15 15 14 16 17 17 22 26 52 98 99 98 100 100
90 100 42 95 97 100 70 7 6 8 10 11 12 13 14 19 27 27 26 25 24 26 25 17 14 13 15 15 14 13 12 16 18 44 86 81 95 98 98 83 78 78 72
40 72 100 33 91 100 100 71 7 5 6 8 11 12 13 13 14 14 14 14 14 13 13 14 15 14 14 13 11 12 15 15 43 76 36 81 100 99 89 95 86 94 95
20 39 49 98 62 45 92 100 69 6 5 5 6 9 11 12 13 14 14 14 14 13 13 13 12 11 10 10 11 14 14 14 14 32 62 78 91 89 95 97 99 87 80
15 17 30 38 59 98 92 62 100 78 7 5 5 6 7 8 10 11 11 11 11 10 9 9 8 8 8 10 12 14 15 16 41 95 98 87 80 66 50 72 77 77 91
11 14 14 18 30 33 65 96 100 98 90 22 6 5 7 8 7 7 7 8 7 7 6 6 7 8 9 10 11 12 16 32 52 51 41 47 76 93 97 95 90 90 95
7 10 12 13 14 15 28 31 71 90 98 100 73 29 15 11 10 22 26 22 22 36 48 63 54 38 47 49 40 24 46 62 70 70 79 91 100 98 94 87 84 88 93
6 6 7 9 11 12 13 13 23 32 66 95 98 95 79 54 54 42 31 30 52 61 63 62 55 61 55 61 78 82 81 77 73 68 70 64 64 67 74 80 89 95 99
7 6 6 6 7 9 10 11 12 12 18 26 29 36 49 90 99 100 98 82 48 45 80 95 95 92 80 66 58 61 66 76 80 82 86 80 82 85 85 87 95 99 99
Wind_Speed
35 38 41 45 48 49 50 50 47 41 36 35 34 32 33 31 33 37 41 45 46 49 53 54 58 54 51 48 43 40 36 31 31 37 49 48 47 45 46 45 46 48 49
38 42 46 50 50 48 44 39 34 34 35 33 31 29 28 29 31 32 30 35 43 49 46 54 58 61 55 51 48 43 38 35 31 32 48 47 45 45 45 45 48 49 49
41 47 50 48 47 44 41 39 38 39 38 33 31 30 30 27 25 27 32 35 33 40 52 48 54 60 58 53 52 47 40 37 31 30 45 49 46 44 46 46 45 47 48
47 50 48 47 45 44 43 42 41 38 34 31 28 27 27 29 32 31 32 36 40 39 38 52 49 58 62 57 55 51 44 39 34 30 43 50 46 44 44 46 47 49 48
52 53 48 48 47 45 45 44 41 37 35 31 28 28 29 30 30 32 35 37 42 44 42 40 52 54 64 61 57 54 49 41 37 34 43 49 46 43 43 45 48 48 49
54 52 50 49 48 47 48 46 38 32 34 31 29 30 28 27 28 28 29 31 38 43 44 40 49 54 68 63 60 57 50 44 40 38 42 50 48 44 45 45 48 48 48
58 54 52 49 47 47 48 38 35 37 36 33 32 29 25 20 15 15 17 19 26 38 44 43 43 56 67 65 63 59 51 48 44 40 44 51 48 45 45 46 46 46 45
57 55 52 50 49 49 45 35 38 41 42 34 28 21 10 3 5 19 20 21 23 30 39 43 43 58 69 68 65 58 53 51 47 40 44 50 48 44 44 44 44 44 42
56 52 52 52 50 49 43 39 41 43 38 31 16 15 12 9 15 18 18 19 25 28 35 41 49 59 72 69 66 57 60 55 48 41 44 49 46 43 43 44 44 42 41
50 52 55 56 53 50 48 46 48 42 37 25 27 27 25 23 18 15 16 20 23 29 36 40 51 62 74 71 64 60 61 56 49 41 45 49 46 43 43 44 44 40 37
56 60 60 61 58 54 53 52 49 44 40 44 42 37 31 26 19 13 14 19 27 32 36 42 59 64 73 71 65 60 59 55 49 41 47 49 46 43 44 44 43 42 39
62 63 64 67 66 60 56 57 49 48 52 48 43 38 32 28 24 19 18 24 29 34 44 56 63 66 72 71 65 56 55 53 47 41 50 49 45 44 46 47 44 42 39
61 59 63 69 71 69 62 60 52 54 55 54 51 45 42 40 37 36 38 40 46 52 60 61 63 64 72 72 63 53 54 49 42 50 52 47 45 45 46 47 44 40 43
59 56 59 65 72 75 66 59 48 54 56 56 60 61 53 49 49 51 56 53 54 55 58 61 61 65 66 62 57 55 52 44 48 52 48 45 45 47 48 45 42 42 41
53 55 56 60 66 70 72 61 46 47 48 53 55 58 59 56 55 58 57 55 57 59 62 64 66 66 63 60 57 53 48 48 51 48 45 45 47 47 44 46 36 49 45
49 53 55 58 61 64 67 67 57 50 45 50 53 55 58 61 60 57 57 60 61 61 62 63 66 63 58 54 51 46 50 52 48 46 48 48 47 46 48 46 35 35 38
42 50 54 58 61 63 64 63 62 56 50 49 52 52 54 56 58 58 59 57 58 58 59 58 56 53 53 48 50 55 53 49 49 51 49 48 48 54 53 54 44 37 36
48 42 49 54 61 62 61 61 61 58 56 53 51 53 53 53 52 55 56 55 53 55 55 54 51 48 51 55 55 51 48 49 49 48 44 43 43 47 35 35 42 39 33
52 46 42 47 50 53 58 57 57 57 55 52 53 54 55 56 55 52 49 47 47 48 49 51 55 56 54 51 49 48 47 47 46 47 51 45 42 27 30 41 39 28 28
44 49 45 39 43 45 45 49 51 52 52 51 50 50 51 53 55 55 56 57 56 56 56 54 52 50 49 46 46 47 47 44 45 43 42 38 31 33 32 32 31 26 25
40 41 45 46 37 38 39 43 43 45 48 49 48 45 46 46 47 49 50 49 50 49 48 47 45 44 44 44 44 46 44 43 45 47 45 40 36 38 30 27 25 21 18
36 37 37 39 43 42 34 35 38 37 39 44 45 44 42 41 41 41 40 40 40 40 40 40 40 40 40 41 42 41 40 41 42 39 37 32 33 31 22 24 23 18 16
28 31 33 33 34 35 40 33 27 32 32 33 36 39 40 39 37 36 37 37 36 34 33 33 34 34 35 35 35 36 37 38 35 30 28 25 21 21 18 15 16 15 10
22 24 25 28 30 31 30 32 36 35 26 29 29 32 34 36 36 35 34 33 35 35 33 31 30 29 30 29 28 30 29 28 24 23 22 21 18 14 15 14 12 15 16
18 20 20 21 22 25 27 28 28 29 32 41 31 23 25 23 26 28 29 28 29 28 27 26 26 25 24 23 23 22 18 17 15 14 15 12 13 14 16 17 15 13 14
13 15 15 16 16 17 19 21 23 24 23 23 24 25 25 29 28 21 20 20 21 21 20 20 18 18 18 17 18 19 18 17 17 17 15 13 13 13 15 18 19 19 17
Wind_Direction
336 335 332 326 323 319 315 312 310 311 308 302 294 288 278 272 268 265 259 248 240 236 235 228 222 222 216 214 215 210 209 209 208 205 199 197 196 197 198 196 194 193 192
341 340 335 332 328 326 327 324 320 316 310 305 299 291 277 273 271 262 253 242 234 234 233 226 220 217 215 208 211 205 204 206 204 200 196 194 194 195 193 195 194 191 191
349 345 338 335 334 337 336 326 319 315 313 305 298 289 281 274 265 261 251 246 240 231 226 223 218 213 208 205 205 201 201 199 192 194 195 191 191 192 191 192 191 191 193
355 347 341 340 340 343 338 329 323 322 316 310 304 294 285 275 265 262 249 243 237 229 226 219 212 206 201 201 200 200 199 193 189 187 191 188 186 188 189 188 190 191 191
353 352 345 346 346 347 343 337 330 324 322 308 304 299 289 277 269 261 253 246 233 224 220 217 206 200 194 195 193 198 196 186 186 185 189 185 183 184 184 185 188 189 189
355 354 349 349 349 345 342 341 339 336 325 318 307 303 298 287 279 269 254 236 219 212 209 210 206 193 190 189 187 193 189 182 182 186 184 182 180 180 182 184 186 187 187
358 357 355 354 353 350 348 348 347 347 339 324 313 308 308 298 266 226 196 190 193 200 198 201 200 189 185 184 183 188 179 178 181 183 180 180 178 177 180 182 184 185 185
2 359 0 3 0 357 355 352 349 346 340 333 325 325 329 311 193 173 182 185 183 185 190 189 190 183 180 180 179 180 176 176 179 175 175 177 176 174 177 179 180 181 180
4 2 7 12 7 6 4 358 354 352 351 351 18 39 32 91 142 167 188 191 190 183 179 180 179 179 175 175 176 174 173 174 175 172 171 174 173 173 174 176 177 176 176
11 13 17 20 17 14 14 8 6 6 12 40 54 65 74 86 106 128 146 155 165 169 170 173 173 173 172 171 173 172 172 173 172 170 169 170 171 170 172 174 173 172 171
25 23 24 28 24 22 21 15 19 23 51 67 71 73 75 79 84 109 149 161 157 158 163 168 167 166 167 166 166 167 170 169 170 168 165 168 169 168 170 171 167 166 169
31 25 26 31 31 29 27 25 34 61 64 65 64 65 67 70 73 84 110 132 148 156 156 156 159 160 164 164 164 166 166 168 167 164 163 165 166 167 168 166 165 166 166
35 31 28 31 36 35 34 36 60 62 64 63 64 65 65 68 72 88 100 111 120 128 136 146 151 156 157 161 164 161 160 163 162 162 161 162 164 164 164 162 164 165 166
33 35 30 32 35 39 39 47 67 60 61 61 62 68 74 72 77 92 96 101 112 119 127 137 142 148 152 157 158 157 159 160 158 157 157 159 160 161 159 158 160 161 165
34 37 33 35 36 37 41 47 60 59 62 57 63 63 72 75 78 87 93 100 109 117 125 133 138 142 146 148 151 154 154 152 152 154 153 153 153 154 154 157 160 153 150
38 41 38 38 41 41 41 44 53 61 64 65 68 69 71 78 86 90 93 100 108 116 125 130 134 137 140 143 146 147 147 148 149 149 148 149 150 150 151 148 150 132 143
42 44 43 41 43 44 46 47 47 55 63 66 70 74 77 82 87 91 96 103 109 115 121 127 132 135 138 142 143 143 144 144 146 146 147 150 152 149 152 154 159 152 157
45 47 49 48 48 46 49 50 52 53 55 63 71 79 84 88 92 96 102 107 112 116 120 125 131 135 135 136 137 138 141 143 144 144 147 149 151 158 152 153 158 161 163
39 53 50 56 52 49 48 52 54 57 59 65 72 79 84 89 94 99 104 110 115 120 123 125 126 127 130 132 134 137 138 140 142 148 139 140 145 138 144 143 156 162 164
40 36 49 55 59 54 52 48 57 59 61 64 69 78 85 92 97 100 103 107 110 114 117 120 123 126 129 131 131 133 137 139 142 143 140 140 143 150 146 159 163 159 167
37 41 39 47 57 58 56 56 51 63 66 67 69 74 81 87 93 98 102 106 110 113 115 118 121 124 127 130 133 137 138 141 145 146 150 154 159 164 172 160 159 161 167
38 39 41 44 43 55 55 52 55 56 67 74 75 74 78 82 88 93 96 101 105 110 114 118 123 126 128 131 134 137 139 143 150 153 155 156 161 165 161 164 175 180 176
36 39 41 42 44 50 48 53 51 60 62 67 78 82 83 82 84 89 95 100 103 106 110 114 119 123 126 132 137 140 143 150 155 159 160 161 160 160 165 169 186 196 216
31 37 40 42 44 44 47 53 48 58 70 74 72 84 87 89 90 89 91 99 106 107 107 106 109 113 115 119 127 135 138 141 145 153 157 161 166 179 199 195 205 226 238
27 31 35 40 44 46 48 49 49 57 50 57 76 84 84 85 90 94 98 105 114 119 116 114 111 119 127 132 134 140 145 155 164 167 172 182 188 196 204 219 236 235 239
13 18 22 28 35 40 45 49 52 53 56 62 67 69 64 64 82 106 102 102 110 119 123 122 121 128 134 144 156 163 166 168 173 179 187 203 220 231 237 240 242 247 248